Location: Berbisdorf
(50.7638°N, 12.9442°E)
Time: 12:56:04
(UTC+00:00)

STARLINK-1317 - Pass Details

Date: 06 October 2020
Orbit: 549 x 550 km, 53.0° (Epoch: 27 October)

Event Time Altitude Azimuth Distance (km) Brightness Sun altitude
Exits shadow 02:22:10 11° 135° (SE) 1,728 6.3 -27.6°
Maximum altitude 02:22:30 12° 130° (SE) 1,723 6.4 -27.6°
Drops below altitude 10° 02:23:53 10° 110° (ESE) 1,821 6.7 -27.4°
Sets 02:27:32 0° 77° (ENE) 2,720 8.4 -26.9°
